Terminal Aerodrome Forecast
Issued by NWS

Home | Current Version | Previous Version | Text Only | Print | Product List | Glossary On
Versions: 1 2 3 4 5 6 7 8 9 10 11 12 13 14
000
FTUS46 KOTX 300540
TAFSFF
TAF
KSFF 300540Z 3006/0106 VRB03KT P6SM -SHRA SCT035 OVC045
     FM300900 VRB04KT P6SM -SHRA OVC022
     FM301100 VRB03KT P6SM -SHRA OVC015
     FM301600 05004KT P6SM BKN030 OVC040
     FM301900 VRB03KT P6SM VCSH BKN040 BKN070
     FM302300 36005KT P6SM SCT050 SCT150=

USA.gov is the U.S. government's official web portal to all federal, state and local government web resources and services.